Temp
63 62 60 60 59 58 57 57 56 55 55 54 53 52 51 51 51 48 47 46 44 45 44 45 45 45 44 44 44 45 44 44 40 44 47 49 49 48 49 52 53 51 50
63 62 59 58 58 56 55 55 54 53 53 52 51 50 49 49 47 45 44 44 43 42 42 42 41 43 41 42 42 42 42 43 41 38 42 42 44 46 44 46 51 50 50
63 60 57 56 55 54 53 53 53 51 50 50 48 47 46 44 44 43 43 43 42 41 41 40 40 40 39 40 41 40 40 42 41 39 39 43 44 43 43 44 46 49 49
61 58 55 54 54 53 52 51 50 49 48 47 47 45 43 43 44 44 42 40 40 40 39 39 40 40 40 40 40 39 39 38 39 38 38 39 40 41 42 40 40 46 45
59 57 54 54 53 51 49 48 47 46 46 46 44 42 42 43 43 40 39 38 37 37 38 40 40 41 42 40 38 37 37 36 36 35 36 36 36 36 36 37 41 37 36
58 54 54 52 51 49 47 46 45 45 43 41 40 40 40 42 39 38 38 36 36 36 36 38 39 40 39 38 37 37 36 35 34 34 34 34 35 37 39 39 35 35 33
54 47 49 48 39 45 45 45 41 39 38 37 38 37 37 38 38 38 37 36 35 36 36 36 36 38 37 37 36 36 36 36 36 35 34 35 35 38 38 35 37 38 33
49 45 42 39 34 34 35 33 33 35 34 35 34 35 35 35 37 37 36 34 35 35 35 35 35 36 36 35 35 34 34 35 36 37 36 36 38 40 41 40 38 33 34
48 47 46 39 35 33 33 33 33 33 33 33 34 34 33 33 36 37 35 34 34 33 33 34 35 35 35 36 33 33 33 33 36 38 38 37 39 40 39 36 33 33 31
49 49 46 42 39 35 34 33 33 34 33 34 33 33 34 33 36 37 36 34 33 33 34 35 36 34 35 35 33 33 31 32 33 34 34 35 36 37 38 40 36 33 31
51 49 47 47 42 38 35 34 34 34 34 34 34 34 35 36 35 37 37 34 33 32 33 33 34 36 36 35 35 33 33 33 33 33 33 33 34 33 34 34 34 35 33
45 43 42 42 40 37 34 33 34 33 33 34 35 35 35 34 37 36 36 36 35 33 33 34 34 36 37 36 34 34 34 34 33 33 33 32 32 32 32 33 33 33 33
35 34 34 34 34 33 33 33 33 33 34 34 34 34 33 34 33 35 35 35 35 33 34 35 36 36 36 33 35 34 33 33 32 31 30 30 31 32 32 32 32 33 32
33 33 33 33 33 33 34 34 34 34 34 33 34 33 33 33 33 33 31 33 33 35 33 34 34 33 35 34 34 34 33 33 32 32 31 32 33 32 31 32 31 31 30
33 33 33 33 33 33 33 34 33 32 33 34 33 33 32 31 31 32 32 30 33 32 33 33 34 33 33 33 34 33 33 33 33 33 32 32 32 32 31 32 31 30 29
33 33 33 33 33 33 32 31 34 34 34 34 34 33 33 33 34 35 35 35 35 36 33 33 32 32 32 32 32 32 33 33 32 33 33 32 31 31 31 31 31 30 29
34 34 34 33 33 33 33 31 29 31 34 34 34 33 34 34 35 35 36 37 36 36 33 33 32 32 31 32 32 32 31 32 33 32 32 32 31 31 31 30 30 30 29
37 35 35 34 34 34 33 33 32 31 30 30 32 33 34 35 35 35 36 37 34 35 33 32 32 32 31 31 31 31 32 32 32 32 32 32 32 31 30 30 30 29 29
37 37 36 35 34 34 34 33 33 33 32 31 31 31 33 35 35 35 35 33 31 31 32 31 31 31 30 31 32 32 32 32 32 32 32 32 32 31 30 30 30 29 29
37 35 35 34 33 33 33 33 32 32 32 32 31 31 32 32 31 31 32 31 31 31 31 31 32 31 32 31 31 31 31 30 31 31 32 32 32 31 30 30 30 30 29
36 35 34 34 34 33 33 33 32 32 31 30 30 31 32 30 29 29 29 29 29 29 30 30 31 31 32 31 30 30 30 30 30 30 30 31 31 31 31 30 29 29 29
36 35 34 33 34 33 33 34 33 32 31 29 29 31 31 31 29 29 29 29 29 30 30 30 30 30 31 31 31 31 28 28 28 28 30 30 30 30 29 29 29 29 28
36 35 34 33 33 33 33 33 32 31 31 30 30 29 29 29 29 29 29 29 29 29 30 30 29 29 30 31 32 31 31 30 30 29 29 30 30 30 29 28 28 27 27
36 35 34 33 33 33 32 32 31 31 30 30 30 29 29 29 29 28 29 29 29 29 29 29 29 29 29 30 31 31 31 32 32 30 28 29 29 29 29 28 28 27 27
36 34 33 33 32 32 31 31 30 30 30 30 29 29 29 29 28 28 28 28 28 28 28 28 28 28 28 29 29 29 31 33 31 31 29 26 25 24 24 25 23 24 22
35 34 33 33 32 32 31 30 30 30 30 30 29 29 29 28 28 28 28 28 27 27 27 28 29 29 29 29 28 24 23 24 27 27 25 25 23 22 21 20 21 20 21
MSLP
1006.66 1007.20 1007.82 1008.63 1009.34 1010.25 1010.84 1011.50 1012.20 1012.92 1013.34 1013.79 1014.15 1014.27 1014.59 1014.76 1015.01 1015.42 1015.59 1015.80 1015.89 1015.93 1015.89 1015.54 1015.26 1015.10 1014.71 1014.47 1014.08 1013.62 1013.10 1012.89 1011.47 1010.02 1010.38 1009.76 1009.81 1008.85 1008.53 1007.93 1007.70 1007.44 1007.55
1006.73 1007.34 1008.08 1008.77 1009.49 1010.35 1011.03 1011.54 1012.20 1012.81 1013.27 1013.73 1014.28 1014.54 1014.66 1014.95 1015.51 1015.81 1015.98 1016.04 1015.90 1015.86 1015.74 1015.40 1015.09 1014.85 1014.45 1014.01 1013.61 1013.21 1012.84 1012.48 1011.45 1009.92 1010.03 1009.37 1009.78 1008.85 1008.44 1008.37 1007.81 1007.32 1007.26
1006.55 1007.52 1008.42 1009.16 1009.78 1010.48 1011.17 1011.69 1012.20 1012.86 1013.44 1013.79 1014.44 1014.37 1014.80 1015.49 1015.95 1016.05 1015.93 1015.79 1015.79 1015.80 1015.59 1015.34 1014.98 1014.54 1014.14 1013.77 1013.36 1012.79 1012.19 1011.78 1011.14 1010.15 1009.26 1008.93 1008.84 1008.33 1007.98 1007.86 1007.59 1007.26 1006.86
1006.44 1007.47 1008.44 1009.12 1009.72 1010.45 1011.13 1011.72 1012.38 1013.04 1013.67 1013.92 1014.08 1014.65 1015.22 1015.69 1015.91 1015.81 1015.75 1015.78 1015.77 1015.60 1015.50 1015.09 1014.61 1014.24 1013.82 1013.29 1012.77 1012.11 1011.38 1010.83 1010.58 1009.50 1008.83 1008.33 1008.34 1007.99 1007.63 1007.46 1007.15 1006.45 1006.56
1006.51 1007.46 1008.37 1009.09 1009.64 1010.43 1011.26 1011.98 1012.70 1013.29 1013.45 1013.86 1014.63 1015.01 1015.33 1015.58 1015.76 1015.83 1015.82 1015.68 1015.60 1015.36 1015.04 1014.59 1013.98 1013.61 1013.28 1012.91 1012.32 1011.61 1011.05 1010.17 1009.49 1009.06 1008.11 1007.89 1007.45 1007.55 1007.09 1007.05 1006.97 1006.61 1007.01
1006.18 1007.44 1008.63 1009.46 1010.00 1010.64 1011.30 1012.14 1012.83 1012.86 1013.51 1014.59 1014.94 1015.15 1015.35 1015.58 1015.67 1015.80 1015.67 1015.66 1015.58 1015.28 1014.70 1014.06 1013.63 1013.28 1012.81 1012.32 1011.83 1010.99 1010.56 1009.45 1008.57 1008.08 1007.30 1007.03 1006.74 1006.67 1006.59 1006.61 1006.95 1006.87 1007.33
1006.17 1007.53 1008.66 1009.68 1010.24 1010.95 1011.54 1012.30 1012.53 1012.83 1014.42 1015.03 1015.10 1015.27 1015.57 1015.66 1015.63 1015.64 1015.62 1015.55 1015.33 1014.98 1014.58 1014.03 1013.39 1012.99 1012.55 1011.81 1011.01 1009.96 1008.82 1008.07 1007.17 1006.55 1005.95 1005.85 1005.91 1005.89 1006.09 1006.21 1006.62 1006.89 1007.64
1006.38 1007.85 1008.98 1009.84 1010.40 1011.20 1011.90 1011.80 1012.33 1013.91 1014.85 1015.32 1015.08 1015.35 1015.65 1015.70 1015.53 1015.47 1015.37 1015.22 1015.01 1014.78 1014.49 1014.03 1013.39 1012.73 1012.28 1011.61 1010.31 1008.89 1007.86 1006.71 1005.47 1004.64 1004.18 1004.45 1005.11 1005.29 1005.43 1005.80 1006.47 1007.29 1008.32
1006.29 1007.84 1009.11 1009.89 1010.49 1011.49 1011.99 1011.63 1012.93 1014.28 1014.83 1014.93 1014.88 1015.22 1015.39 1015.55 1015.31 1015.10 1015.07 1014.86 1014.69 1014.45 1014.20 1013.78 1013.17 1012.55 1012.17 1011.12 1009.69 1008.86 1007.53 1005.79 1004.31 1003.05 1002.70 1003.83 1004.67 1004.94 1005.33 1006.09 1007.02 1007.66 1009.07
1006.20 1007.64 1008.89 1009.59 1010.44 1011.40 1011.31 1012.45 1013.30 1014.15 1014.48 1014.26 1014.67 1014.93 1015.10 1015.10 1015.22 1015.00 1014.87 1014.84 1014.65 1014.50 1013.95 1013.42 1012.96 1012.68 1011.60 1010.58 1009.67 1009.10 1007.67 1006.02 1004.76 1004.14 1003.93 1004.36 1004.84 1004.76 1005.18 1005.81 1006.89 1007.82 1008.97
1006.28 1007.76 1008.69 1009.31 1010.05 1010.32 1012.17 1012.56 1013.40 1013.96 1013.77 1014.00 1014.68 1014.63 1014.73 1014.92 1014.83 1014.82 1014.79 1014.60 1014.76 1014.48 1013.81 1013.33 1012.85 1012.44 1011.21 1010.17 1009.74 1009.27 1007.94 1006.84 1005.87 1005.69 1005.50 1005.32 1005.46 1005.99 1006.35 1006.95 1007.37 1007.83 1008.90
1007.18 1007.96 1009.05 1009.56 1009.84 1011.55 1012.14 1012.73 1013.34 1013.54 1013.64 1014.16 1014.49 1014.48 1014.59 1014.66 1014.79 1014.93 1014.74 1014.75 1014.64 1014.27 1013.76 1013.27 1012.81 1012.33 1011.32 1010.38 1010.34 1009.33 1008.26 1007.36 1007.00 1006.80 1006.82 1006.79 1006.72 1007.24 1007.69 1008.02 1008.48 1009.05 1009.46
1008.00 1008.66 1009.11 1010.12 1011.57 1012.10 1012.09 1012.80 1013.08 1013.31 1013.65 1014.11 1014.27 1014.41 1014.52 1014.71 1015.00 1015.03 1014.90 1014.65 1014.28 1013.91 1013.53 1013.27 1012.38 1011.89 1011.38 1010.83 1010.40 1009.81 1009.20 1008.40 1008.10 1008.11 1008.21 1008.20 1008.21 1008.41 1008.58 1009.14 1009.69 1010.14 1010.82
1007.87 1009.03 1009.87 1011.00 1011.90 1011.76 1012.36 1012.75 1012.99 1013.31 1013.70 1014.13 1014.23 1014.32 1014.71 1014.92 1015.22 1015.34 1014.99 1014.58 1014.08 1013.68 1013.61 1013.16 1012.30 1011.97 1011.52 1011.01 1010.77 1010.42 1010.24 1009.57 1009.09 1009.24 1009.28 1009.39 1009.38 1009.51 1009.80 1010.15 1010.60 1011.24 1011.74
1008.17 1009.33 1010.17 1010.97 1011.20 1011.91 1012.42 1012.77 1013.14 1013.74 1013.98 1014.18 1014.35 1014.56 1014.91 1015.07 1015.52 1015.37 1015.06 1014.61 1014.15 1013.83 1013.73 1013.02 1012.58 1012.43 1012.08 1011.56 1011.30 1011.18 1011.01 1010.74 1010.17 1010.12 1010.21 1010.20 1010.24 1010.50 1010.98 1011.33 1011.58 1012.03 1012.50
1008.35 1009.13 1010.05 1010.59 1011.19 1011.84 1012.36 1012.99 1013.62 1014.03 1014.38 1014.58 1014.76 1014.86 1015.00 1015.32 1015.42 1015.25 1014.85 1014.27 1014.31 1014.01 1013.74 1013.37 1013.24 1013.04 1012.55 1012.30 1012.06 1012.03 1011.81 1011.57 1011.46 1011.13 1011.07 1011.18 1011.36 1011.49 1011.71 1011.99 1012.36 1012.81 1013.28
1007.88 1009.11 1009.77 1010.42 1010.92 1011.62 1012.33 1012.91 1013.67 1014.47 1014.70 1014.93 1015.13 1015.27 1015.18 1015.19 1015.15 1014.93 1014.47 1014.27 1013.94 1014.02 1013.85 1013.72 1013.64 1013.72 1013.53 1013.42 1012.76 1012.73 1012.53 1012.40 1012.25 1012.15 1012.05 1012.02 1012.14 1012.39 1012.56 1012.76 1013.04 1013.39 1013.98
1008.06 1008.78 1009.34 1010.10 1010.90 1011.56 1012.12 1012.66 1013.34 1013.87 1014.37 1015.06 1015.36 1015.54 1015.47 1015.17 1015.10 1014.67 1014.50 1014.45 1014.33 1014.47 1014.32 1014.22 1013.97 1013.90 1013.73 1014.11 1013.67 1013.35 1013.15 1013.13 1013.06 1012.90 1012.89 1012.93 1012.77 1012.96 1013.20 1013.39 1013.63 1014.00 1014.50
1007.72 1008.42 1009.24 1010.09 1010.85 1011.31 1011.85 1012.50 1012.99 1013.49 1014.05 1014.86 1015.26 1015.62 1015.56 1015.39 1015.34 1015.15 1015.15 1014.97 1015.20 1015.00 1014.80 1014.80 1014.51 1014.57 1014.43 1014.57 1014.36 1014.16 1013.88 1013.81 1013.79 1013.71 1013.60 1013.54 1013.59 1013.55 1013.83 1014.07 1014.41 1014.78 1015.24
1007.77 1008.65 1009.50 1010.16 1010.66 1011.08 1011.83 1012.36 1012.93 1013.44 1014.23 1014.61 1015.04 1015.47 1015.41 1015.65 1015.92 1015.84 1015.65 1015.74 1015.99 1015.60 1015.35 1015.32 1015.13 1015.15 1014.93 1015.06 1015.00 1014.82 1014.56 1014.49 1014.49 1014.52 1014.46 1014.29 1014.29 1014.46 1014.63 1014.85 1015.22 1015.52 1016.00
1008.09 1009.22 1009.78 1010.14 1010.57 1011.25 1011.63 1012.20 1012.84 1013.52 1014.35 1014.70 1015.37 1015.58 1015.62 1016.04 1016.17 1016.20 1016.45 1016.59 1016.60 1016.24 1016.13 1015.86 1015.90 1015.92 1015.68 1015.67 1015.61 1015.56 1015.50 1015.48 1015.34 1015.25 1015.18 1015.22 1015.20 1015.23 1015.44 1015.69 1016.11 1016.51 1016.83
1008.42 1009.27 1009.91 1010.45 1010.64 1010.99 1011.56 1012.11 1012.81 1013.59 1014.31 1014.92 1015.64 1016.00 1016.17 1016.23 1016.53 1016.68 1017.16 1017.23 1017.02 1016.77 1016.71 1016.53 1016.66 1016.54 1016.57 1016.40 1016.34 1016.28 1016.27 1016.30 1016.27 1016.23 1016.09 1016.04 1016.11 1016.25 1016.44 1016.66 1016.91 1017.29 1017.66
1008.69 1009.49 1010.07 1010.31 1010.73 1011.25 1011.68 1012.31 1012.88 1013.48 1014.37 1014.96 1015.62 1016.01 1016.15 1016.43 1016.76 1017.28 1017.83 1017.60 1017.48 1017.47 1017.21 1017.23 1017.29 1017.26 1017.23 1017.07 1017.04 1016.98 1017.01 1017.02 1017.04 1016.87 1016.86 1016.90 1016.98 1017.10 1017.37 1017.61 1017.86 1018.14 1018.41
1008.96 1009.45 1009.97 1010.27 1010.76 1011.44 1011.78 1012.43 1013.19 1013.96 1014.62 1015.29 1015.76 1016.10 1016.41 1016.60 1017.33 1017.63 1018.11 1017.97 1018.09 1017.92 1017.91 1018.00 1018.04 1018.04 1017.93 1017.85 1017.80 1017.70 1017.69 1017.64 1017.58 1017.55 1017.54 1017.62 1017.79 1017.93 1018.12 1018.37 1018.56 1018.81 1019.02
1009.07 1009.58 1010.18 1010.27 1010.88 1011.46 1012.09 1012.80 1013.59 1014.32 1015.10 1015.48 1015.68 1016.16 1016.64 1017.17 1017.57 1018.10 1018.25 1018.40 1018.47 1018.52 1018.65 1018.73 1018.81 1018.88 1018.73 1018.66 1018.67 1018.55 1018.43 1018.34 1018.33 1018.33 1018.38 1018.52 1018.72 1018.88 1019.09 1019.29 1019.49 1019.65 1019.78
1009.33 1009.84 1010.31 1010.50 1011.10 1011.60 1012.18 1012.96 1013.72 1014.52 1015.22 1015.68 1015.98 1016.27 1016.88 1017.37 1017.71 1018.20 1018.49 1018.81 1018.96 1019.13 1019.28 1019.32 1019.37 1019.42 1019.45 1019.41 1019.48 1019.42 1019.34 1019.29 1019.22 1019.15 1019.18 1019.35 1019.63 1019.88 1020.02 1020.18 1020.33 1020.56 1020.70
Wind_Speed
11 10 9 9 9 7 6 7 6 6 4 3 3 3 4 5 5 5 6 7 7 9 8 10 11 10 8 8 8 9 9 10 15 13 11 11 15 11 8 8 8 6 5
12 10 10 10 9 8 7 7 7 5 5 5 5 4 4 5 6 6 6 7 9 9 10 11 11 9 12 11 9 12 11 12 13 20 13 10 15 13 6 10 10 6 5
12 11 10 9 8 8 7 7 6 6 5 5 2 4 5 5 5 5 5 6 7 8 10 11 13 12 12 11 11 11 11 11 12 12 13 10 8 6 7 8 10 13 5
13 13 11 9 8 8 7 7 6 6 4 3 5 5 4 3 5 5 5 6 8 9 10 11 12 12 14 14 13 14 13 12 13 12 12 10 8 5 5 8 8 9 6
13 13 10 9 9 9 8 7 6 5 4 6 4 4 2 3 3 5 6 7 9 11 11 12 11 14 20 18 12 14 15 12 11 11 12 10 9 7 6 3 8 1 3
13 12 11 10 10 9 8 7 6 5 8 4 3 2 3 3 7 6 6 7 10 10 10 12 11 15 13 20 22 24 22 17 17 12 12 12 12 8 7 6 2 2 3
13 9 10 9 7 8 8 6 7 9 5 2 2 4 3 4 7 8 9 6 8 9 10 9 10 8 13 13 19 24 23 25 26 19 17 15 12 8 5 4 5 3 3
13 11 10 10 8 5 6 8 7 5 2 2 2 0 3 2 7 8 11 7 6 8 8 10 11 11 11 15 16 15 16 16 15 13 17 15 10 6 9 6 4 7 7
15 12 12 10 10 6 6 9 7 4 3 2 2 0 1 3 6 6 8 6 7 6 7 7 9 10 16 21 14 15 15 13 15 17 14 14 10 11 8 8 7 11 5
15 13 12 11 11 9 8 7 5 3 3 3 2 3 5 3 4 5 7 4 7 7 7 6 10 14 17 18 13 12 12 12 12 7 6 5 1 11 19 11 9 10 9
15 13 11 10 11 11 7 5 5 4 3 2 2 3 3 1 2 6 10 4 4 6 5 6 6 17 15 17 16 9 9 9 11 7 6 6 8 7 6 6 4 9 7
12 11 9 9 9 7 8 5 5 4 3 1 2 2 3 2 6 8 10 8 7 5 6 5 6 14 15 15 12 18 16 9 7 7 7 7 8 7 7 8 10 8 7
11 10 11 10 6 5 7 5 4 4 2 1 2 2 3 2 3 9 10 10 8 4 4 7 11 11 10 7 14 17 12 7 7 8 8 8 7 7 10 10 12 14 12
13 10 9 8 7 6 4 3 2 3 2 1 2 3 2 2 4 4 4 4 6 5 5 5 6 7 6 5 7 8 7 7 7 7 7 6 6 6 8 7 9 8 10
11 10 9 7 7 6 5 3 4 4 4 2 3 4 3 3 3 6 6 4 4 2 4 2 5 5 7 7 7 8 7 7 7 6 6 7 7 8 7 6 6 7 8
11 8 6 6 6 6 6 7 12 10 10 12 11 6 3 3 5 6 10 10 9 5 2 5 6 6 7 7 7 6 6 7 6 6 6 6 6 6 7 6 6 6 8
11 9 7 7 6 7 7 7 7 7 10 10 8 7 6 3 4 6 6 6 6 3 4 5 6 7 7 6 6 6 6 6 5 5 6 6 6 6 6 5 6 7 7
11 11 8 6 6 6 6 7 7 6 6 4 4 5 7 9 9 11 9 7 5 7 6 6 6 6 7 7 6 6 6 5 5 5 5 4 5 5 6 5 6 7 7
9 8 7 6 6 6 6 6 5 5 6 5 4 2 3 7 9 10 10 5 5 5 5 5 5 4 5 5 6 7 7 7 6 5 5 5 4 4 6 6 7 9 10
8 11 8 6 6 6 5 6 5 5 5 4 4 1 3 3 4 5 5 6 5 5 4 5 6 5 5 4 5 4 5 6 6 6 6 6 6 5 6 6 6 6 7
8 7 9 6 5 6 6 6 5 6 5 5 5 4 7 5 4 5 5 5 5 6 6 6 6 6 6 6 5 5 5 6 6 6 6 6 6 6 6 7 8 8 8
8 6 6 5 6 7 6 7 7 6 7 7 4 4 7 4 5 5 5 5 5 5 5 5 5 6 6 6 6 5 5 5 4 3 6 6 7 7 7 7 7 7 6
7 8 7 6 6 8 7 7 7 7 7 6 5 5 4 5 5 5 4 5 5 5 6 6 6 6 6 6 6 6 6 6 5 4 5 5 5 5 6 7 6 6 5
7 9 8 7 6 7 8 8 7 8 7 5 5 5 5 6 6 6 4 5 5 6 6 6 6 8 6 6 6 6 5 5 5 6 6 6 7 7 7 7 6 6 5
6 8 7 7 7 7 8 8 8 7 5 5 6 6 6 6 6 6 5 5 5 6 7 6 6 7 8 10 11 9 9 10 7 7 5 6 8 8 6 5 5 5 6
7 8 7 6 7 7 7 8 7 6 6 6 6 6 7 6 6 6 5 5 5 6 6 5 8 11 12 9 9 9 10 10 9 10 5 5 5 5 4 5 7 4 5
Wind_Direction
147 144 135 128 118 116 116 112 107 97 86 67 47 41 13 5 12 1 349 331 319 310 302 302 308 306 300 298 289 284 277 272 273 288 285 290 282 286 300 299 264 236 230
153 142 134 131 128 126 121 118 109 114 85 67 42 28 10 13 12 352 330 313 310 313 314 313 307 310 306 299 293 288 285 276 271 277 275 272 268 271 291 311 293 258 246
150 142 135 134 134 124 123 115 111 100 85 69 63 32 33 15 342 310 292 323 321 314 310 308 304 303 294 286 284 281 279 282 281 283 283 278 273 251 262 265 262 265 238
150 144 145 150 136 130 118 110 102 89 94 88 50 48 34 338 306 308 340 336 320 311 303 296 296 293 294 294 287 283 281 277 276 272 272 274 269 258 242 259 271 238 226
153 154 151 137 129 120 121 109 103 111 97 53 47 38 338 305 324 4 334 323 314 307 304 295 295 291 302 300 298 295 290 280 272 270 268 266 259 255 238 246 264 179 4
158 145 141 142 135 126 119 125 144 104 62 59 51 332 347 316 11 348 336 322 314 305 302 310 306 308 301 304 297 292 280 276 269 262 261 253 250 239 233 228 181 115 70
142 134 143 132 115 125 132 139 96 77 76 42 43 29 324 330 341 337 334 318 308 304 304 306 307 303 306 307 300 290 289 276 256 256 253 241 240 225 210 172 193 131 109
132 133 126 138 127 108 131 109 92 86 124 203 135 328 324 320 329 330 333 311 305 298 312 309 296 308 311 307 308 307 304 292 279 260 239 236 226 211 195 176 123 95 80
145 152 152 145 136 147 150 113 105 132 170 185 124 168 238 274 315 341 340 328 322 309 305 293 304 315 308 322 322 315 314 316 315 301 225 199 202 190 139 114 128 123 109
152 159 143 145 142 158 107 120 114 142 189 131 155 211 238 244 305 342 353 330 326 321 308 316 325 322 330 341 334 319 326 336 345 8 48 144 221 154 153 150 148 138 126
130 132 136 141 135 109 132 113 131 165 115 106 217 239 199 172 3 2 352 334 317 310 314 320 326 332 351 359 343 334 345 351 7 33 45 72 79 66 72 81 79 140 140
113 122 118 106 96 121 128 120 138 130 114 198 216 238 154 72 32 10 347 337 313 307 304 304 307 330 357 16 358 359 357 24 25 43 47 42 70 72 67 69 76 74 64
115 100 99 89 106 138 114 131 131 127 109 183 138 101 67 41 41 4 342 333 328 313 317 307 328 331 352 4 12 15 11 23 49 49 53 59 68 82 89 82 82 88 82
114 114 113 127 144 108 120 125 111 115 120 141 105 80 73 62 33 348 325 325 326 344 323 306 346 356 353 17 22 16 19 29 53 60 70 63 67 71 76 91 98 101 98
122 131 136 141 127 128 95 83 100 65 58 64 73 82 49 36 353 310 313 324 328 331 312 327 19 14 17 19 27 26 23 23 41 53 61 70 75 81 78 84 84 95 107
134 130 140 139 134 128 122 98 80 96 93 81 72 66 102 57 320 312 313 326 331 47 340 32 30 22 28 19 27 26 23 31 24 54 64 67 74 80 86 87 90 96 106
127 143 139 138 141 140 135 128 122 97 94 96 93 90 79 50 355 328 319 299 328 95 48 45 44 35 26 16 26 26 30 25 30 40 59 74 81 82 85 89 102 107 109
141 139 137 136 140 143 148 141 139 145 138 119 75 112 73 60 42 28 20 48 43 44 48 37 52 47 48 40 28 30 36 34 37 42 53 50 74 93 102 95 96 113 104
133 130 128 135 140 135 140 139 146 138 122 132 142 176 120 73 60 47 41 54 64 57 48 40 40 47 49 38 47 49 46 42 40 43 43 48 53 76 79 90 91 97 110
112 119 126 131 136 131 135 136 130 121 131 125 99 88 130 84 55 57 47 47 47 52 43 43 42 34 37 46 36 34 44 47 49 45 44 52 60 64 81 87 98 109 96
117 132 134 130 126 136 131 128 124 124 122 100 96 68 84 98 85 65 57 49 45 48 45 47 40 32 30 36 33 44 48 47 45 52 56 52 54 65 66 73 81 82 90
122 127 126 135 132 129 129 130 126 121 115 111 112 88 96 95 91 78 69 69 60 53 41 52 50 43 40 43 32 41 40 43 38 41 60 66 67 65 67 70 82 87 90
127 132 133 123 114 122 122 120 120 115 118 122 131 122 103 96 93 87 76 66 62 55 50 48 48 47 43 41 38 41 52 49 41 42 59 61 77 95 96 93 89 90 93
136 137 131 124 124 123 120 115 111 114 116 125 121 111 107 98 97 95 90 79 76 68 65 57 56 56 46 45 43 43 46 52 49 49 51 63 66 66 69 67 70 74 81
134 124 131 129 127 125 122 118 120 119 130 124 118 113 106 106 105 97 92 86 78 73 67 68 71 58 57 66 55 47 51 66 59 57 57 62 68 62 61 66 59 52 54
131 126 127 124 126 128 125 124 126 135 132 130 125 123 122 118 108 103 97 93 93 89 86 75 82 84 83 74 55 54 50 47 51 49 46 59 64 60 60 61 61 51 54